Punta Gorda, FL

11:16 AM EDT on August 22, 2017 (GMT -0400)
Charlotte County

Weather History for KPGD - February, 2013

Change the Weather History Date:

Saturday, February 9, 2013

  Actual Average Record
Temperature  
Mean Temperature 66 °F -  
Max Temperature 81 °F 73 °F 84 °F (2001)
Min Temperature 51 °F 50 °F 41 °F (2011)
Cooling Degree Days 1    
Growing Degree Days 16 (Base 50)    
Moisture  
Dew Point 54 °F    
Average Humidity 82    
Maximum Humidity 100    
Minimum Humidity 38    
Precipitation  
Precipitation 0.01 in - - ()
Sea Level Pressure  
Sea Level Pressure 30.13 in    
Wind  
Wind Speed 8 mph (NE)    
Max Wind Speed 15 mph    
Max Gust Speed 18 mph    
Visibility 6 miles    
Events Fog    
Averages and records for this station are not official NWS values.
T = Trace of Precipitation, MM = Missing Value Source: NWS Daily Summary

Daily Weather History Graph

Daily Weather History Graph

Search for Another Location

Airport or City:

Trip Planner

Search our weather history database for the weather conditions in past years. The results will help you decide how hot, cold, wet, or windy it might be!

Date:

Astronomy

Feb. 09, 2013 Rise Set
Actual Time 7:08 AM EST 6:16 PM EST
Civil Twilight 6:44 AM EST 6:40 PM EST
Nautical Twilight 6:17 AM EST 7:07 PM EST
Astronomical Twilight 5:49 AM EST 7:34 PM EST
Moon 6:20 AM EST (2/9) 5:54 PM EST (2/9)
Length of Visible Light 11h 55m
Length of Day
11h 07m
Waning Crescent, 0% of the Moon is Illuminated
Feb 9
Waning Crescent
Feb 10
New
Feb 17
First Quarter
Feb 25
Full
Mar 4
Last Quarter

Hourly Weather History & Observations

Time (EST) Temp. Heat Index Dew Point Humidity Pressure Visibility Wind Dir Wind Speed Gust Speed Precip Events Conditions
12:53 AM 57.9 °F - 55.9 °F 93% 30.11 in 10.0 mi North 8.1 mph - N/A   Clear
1:53 AM 57.0 °F - 55.0 °F 93% 30.11 in 10.0 mi North 6.9 mph - N/A   Clear
2:53 AM 54.0 °F - 53.1 °F 97% 30.09 in 6.0 mi NE 4.6 mph - N/A   Clear
3:05 AM 53.6 °F - 53.6 °F 100% 30.08 in 1.8 mi NE 4.6 mph - N/A   Clear
3:19 AM 53.6 °F - 51.8 °F 94% 30.09 in 3.0 mi NNE 5.8 mph - N/A   Clear
3:27 AM 51.8 °F - 51.8 °F 100% 30.09 in 1.8 mi NE 4.6 mph - N/A   Clear
3:36 AM 51.8 °F - 51.8 °F 100% 30.09 in 0.5 mi NE 4.6 mph - N/A Fog Fog
3:50 AM 51.8 °F - 51.8 °F 100% 30.09 in 0.5 mi NNE 3.5 mph - N/A Fog Fog
3:53 AM 52.0 °F - 51.1 °F 97% 30.09 in 0.5 mi NNE 3.5 mph - N/A Fog Fog
4:02 AM 53.6 °F - 51.8 °F 94% 30.09 in 1.2 mi NNE 4.6 mph - N/A   Partly Cloudy
4:34 AM 51.8 °F - 51.8 °F 100% 30.10 in 3.0 mi NNE 4.6 mph - N/A   Clear
4:50 AM 53.6 °F - 51.8 °F 94% 30.10 in 4.0 mi North 4.6 mph - N/A   Scattered Clouds
4:53 AM 54.0 °F - 53.1 °F 97% 30.11 in 4.0 mi NNE 4.6 mph - N/A   Mostly Cloudy
4:59 AM 55.4 °F - 53.6 °F 94% 30.10 in 3.0 mi NNE 8.1 mph - N/A   Mostly Cloudy
5:10 AM 55.4 °F - 55.4 °F 100% 30.11 in 2.0 mi NNE 8.1 mph - N/A   Overcast
5:16 AM 55.4 °F - 55.4 °F 100% 30.11 in 0.8 mi NNE 9.2 mph - N/A   Overcast
5:53 AM 55.9 °F - 55.0 °F 97% 30.13 in 0.5 mi NNE 9.2 mph - 0.01 in Fog Fog
6:04 AM 55.4 °F - 53.6 °F 94% 30.13 in 2.0 mi NNE 9.2 mph - N/A   Overcast
6:11 AM 55.4 °F - 53.6 °F 94% 30.13 in 3.0 mi NNE 11.5 mph - N/A   Overcast
6:17 AM 55.4 °F - 53.6 °F 94% 30.13 in 1.8 mi NNE 10.4 mph - N/A   Overcast
6:34 AM 55.4 °F - 55.4 °F 100% 30.14 in 3.0 mi NNE 9.2 mph - N/A   Overcast
6:53 AM 55.0 °F - 55.0 °F 100% 30.14 in 5.0 mi NNE 8.1 mph - N/A   Mostly Cloudy
7:01 AM 55.4 °F - 53.6 °F 94% 30.15 in 6.0 mi NNE 8.1 mph - N/A   Scattered Clouds
7:53 AM 55.9 °F - 54.0 °F 93% 30.17 in 9.0 mi NNE 10.4 mph - N/A   Partly Cloudy
8:53 AM 60.1 °F - 55.0 °F 83% 30.19 in 10.0 mi NNE 12.7 mph - N/A   Clear
10:53 AM 71.1 °F - 54.0 °F 55% 30.19 in 10.0 mi NE 15.0 mph - N/A   Clear
11:53 AM 75.0 °F - 55.0 °F 50% 30.19 in 10.0 mi ENE 13.8 mph - N/A   Clear
12:53 PM 77.0 °F - 55.0 °F 47% 30.17 in 10.0 mi ENE 10.4 mph 18.4 mph N/A   Clear
1:53 PM 80.1 °F 80.0 °F 54.0 °F 40% 30.14 in 10.0 mi ENE 11.5 mph - N/A   Clear
2:53 PM 81.0 °F 80.4 °F 53.1 °F 38% 30.14 in 10.0 mi NE 11.5 mph 16.1 mph N/A   Clear
3:53 PM 80.1 °F 80.0 °F 54.0 °F 40% 30.12 in 10.0 mi ENE 9.2 mph - N/A   Partly Cloudy
4:53 PM 79.0 °F - 54.0 °F 42% 30.13 in 10.0 mi ENE 11.5 mph - N/A   Clear
5:53 PM 75.0 °F - 54.0 °F 48% 30.14 in 10.0 mi ENE 9.2 mph - N/A   Clear
6:53 PM 66.9 °F - 55.0 °F 66% 30.14 in 10.0 mi ENE 6.9 mph - N/A   Partly Cloudy
7:53 PM 69.1 °F - 55.0 °F 61% 30.17 in 10.0 mi ENE 12.7 mph - N/A   Partly Cloudy
8:53 PM 66.0 °F - 57.0 °F 73% 30.19 in 10.0 mi East 10.4 mph - N/A   Partly Cloudy
9:53 PM 64.9 °F - 57.9 °F 78% 30.20 in 10.0 mi ENE 9.2 mph - N/A   Partly Cloudy
10:53 PM 64.9 °F - 57.9 °F 78% 30.20 in 10.0 mi East 10.4 mph - N/A   Mostly Cloudy
11:53 PM 62.1 °F - 57.9 °F 86% 30.21 in 10.0 mi ENE 6.9 mph - N/A   Clear